Weather History for Houlton, ME

Change the Weather History Date:

Wednesday, December 5, 2012

  Actual Average Record
Temperature  
Mean Temperature 40 °F 24 °F  
Max Temperature 50 °F 32 °F 59 °F (1950)
Min Temperature 29 °F 16 °F -13 °F (1971)
Degree Days  
Heating Degree Days 25 41  
Month to date heating degree days 170 201  
Since 1 July heating degree days 2039 2309  
Cooling Degree Days 0 0  
Month to date cooling degree days 0 0  
Year to date cooling degree days 277 191  
Moisture  
Dew Point 36 °F    
Average Humidity 76    
Maximum Humidity 93    
Minimum Humidity 58    
Precipitation  
Precipitation 0.53 in 0.12 in 1.09 in (1961)
Month to date precipitation 0.94 0.61  
Year to date precipitation 43.65 37.30  
Sea Level Pressure  
Sea Level Pressure 29.80 in    
Wind  
Wind Speed 9 mph (West)    
Max Wind Speed 18 mph    
Max Gust Speed 30 mph    
Visibility 7 miles    
Events Rain , Snow    
T = Trace of Precipitation, MM = Missing Value Source: NWS Daily Summary

Daily Weather History Graph

Daily Weather History Graph

Search for Another Location

Airport:

Trip Planner

Search our weather history database for the weather conditions in past years. The results will help you decide how hot, cold, wet, or windy it might be!

Date:

Astronomy

Dec. 05, 2012 Rise Set
Actual Time 6:58 AM EST 3:45 PM EST
Civil Twilight 6:23 AM EST 4:20 PM EST
Nautical Twilight 5:46 AM EST 4:57 PM EST
Astronomical Twilight 5:09 AM EST 5:34 PM EST
Moon 10:48 PM EST (12/5) 11:04 AM EST (12/5)
Length of Visible Light 9h 56m
Length of Day
8h 47m
Waning Gibbous, 60% of the Moon is Illuminated
Dec 5
Waning Gibbous
Dec 6
Last Quarter
Dec 13
New
Dec 20
First Quarter
Dec 28
Full

Hourly Weather History & Observations

Time (EST) Temp. Windchill Dew Point Humidity Pressure Visibility Wind Dir Wind Speed Gust Speed Precip Events Conditions
12:15 AM 46.4 °F 42.4 °F 42.8 °F 87% 29.87 in 3.0 mi South 8.1 mph - N/A   Overcast
12:50 AM 46.4 °F 42.9 °F 44.6 °F 93% 29.85 in 2.5 mi South 6.9 mph 17.3 mph 0.01 in   Overcast
12:53 AM 46.0 °F 41.9 °F 44.1 °F 93% 29.87 in 2.5 mi South 8.1 mph - 0.01 in   Overcast
1:49 AM 46.4 °F 41.1 °F 44.6 °F 93% 29.83 in 3.0 mi South 11.5 mph 18.4 mph 0.00 in Rain Light Rain
1:53 AM 46.9 °F - 45.0 °F 93% 29.84 in 3.0 mi South 10.4 mph 18.4 mph 0.00 in Rain Light Rain
2:53 AM 48.0 °F - 45.0 °F 89% 29.81 in 4.0 mi South 6.9 mph - 0.01 in   Overcast
3:53 AM 48.9 °F - 46.0 °F 90% 29.76 in 4.0 mi South 10.4 mph 20.7 mph N/A   Overcast
4:53 AM 48.9 °F - 46.9 °F 93% 29.73 in 4.0 mi South 8.1 mph 19.6 mph N/A   Overcast
5:53 AM 50.0 °F - 48.0 °F 93% 29.70 in 4.0 mi South 9.2 mph - 0.03 in Rain Rain
6:22 AM 50.0 °F - 48.2 °F 94% 29.70 in 2.0 mi SW 5.8 mph - 0.12 in Rain Heavy Rain
6:43 AM 48.2 °F - 44.6 °F 87% 29.73 in 6.0 mi WNW 9.2 mph 24.2 mph 0.19 in Rain Light Rain
6:49 AM 48.2 °F - 44.6 °F 87% 29.73 in 6.0 mi WNW 9.2 mph - 0.19 in Rain Light Rain
6:53 AM 48.0 °F - 44.1 °F 86% 29.73 in 7.0 mi NW 8.1 mph - 0.20 in Rain Light Rain
7:09 AM 46.4 °F 42.4 °F 44.6 °F 93% 29.73 in 6.0 mi WNW 8.1 mph - 0.02 in Rain Light Rain
7:53 AM 46.0 °F 42.5 °F 43.0 °F 89% 29.74 in 5.0 mi NW 6.9 mph - 0.09 in Rain Rain
9:53 AM 44.1 °F - 41.0 °F 89% 29.74 in 10.0 mi Calm Calm - 0.04 in Rain Light Rain
10:53 AM 46.0 °F 44.8 °F 42.1 °F 86% 29.73 in 10.0 mi Variable 3.5 mph - 0.00 in   Mostly Cloudy
11:23 AM 46.4 °F 41.9 °F 39.2 °F 76% 29.71 in 10.0 mi West 9.2 mph - N/A   Overcast
11:44 AM 44.6 °F 39.7 °F 37.4 °F 76% 29.72 in 10.0 mi West 9.2 mph 26.5 mph N/A   Overcast
11:53 AM 45.0 °F 39.3 °F 37.0 °F 74% 29.73 in 10.0 mi West 11.5 mph 20.7 mph N/A   Overcast
12:53 PM 46.0 °F 41.4 °F 33.1 °F 61% 29.73 in 10.0 mi West 9.2 mph 21.9 mph N/A   Scattered Clouds
1:53 PM 44.1 °F 38.1 °F 30.0 °F 58% 29.74 in 10.0 mi WNW 11.5 mph 18.4 mph N/A   Scattered Clouds
2:53 PM 42.1 °F 37.1 °F 32.0 °F 67% 29.75 in 10.0 mi West 8.1 mph - 0.00 in   Overcast
3:53 PM 39.9 °F 33.4 °F 30.9 °F 70% 29.77 in 10.0 mi West 10.4 mph - N/A   Mostly Cloudy
4:53 PM 37.0 °F 33.3 °F 33.1 °F 86% 29.81 in 10.0 mi West 4.6 mph - 0.00 in   Overcast
5:53 PM 35.1 °F 30.1 °F 28.9 °F 78% 29.84 in 10.0 mi NW 5.8 mph - N/A   Overcast
6:34 PM 35.6 °F 29.9 °F 28.4 °F 75% 29.84 in 10.0 mi NW 6.9 mph - N/A   Overcast
6:53 PM 34.0 °F 24.2 °F 27.0 °F 75% 29.86 in 10.0 mi West 15.0 mph 23.0 mph N/A   Overcast
7:18 PM 33.8 °F 24.3 °F 24.8 °F 70% 29.85 in 10.0 mi West 13.8 mph 21.9 mph N/A   Overcast
7:44 PM 32.0 °F 21.2 °F 26.6 °F 80% 29.87 in 2.5 mi NNW 16.1 mph 26.5 mph 0.00 in Snow Light Snow
7:53 PM 30.9 °F 24.3 °F 26.1 °F 82% 29.88 in 1.8 mi NW 6.9 mph 23.0 mph 0.01 in Snow Light Snow
7:57 PM 30.2 °F 24.3 °F 26.6 °F 86% 29.87 in 3.0 mi Variable 5.8 mph - 0.00 in Snow Light Snow
8:53 PM 30.9 °F 21.2 °F 19.9 °F 64% 29.91 in 10.0 mi NNW 12.7 mph 18.4 mph 0.00 in   Overcast
9:53 PM 30.0 °F 20.0 °F 18.0 °F 61% 29.92 in 10.0 mi NNW 12.7 mph 21.9 mph N/A   Overcast
10:53 PM 30.0 °F 21.7 °F 17.1 °F 59% 29.92 in 10.0 mi NW 9.2 mph 20.7 mph N/A   Overcast
11:53 PM 28.9 °F 18.6 °F 17.1 °F 61% 29.94 in 10.0 mi NW 12.7 mph 19.6 mph N/A   Scattered Clouds